Time,TemperatureF,DewpointF,PressureIn,WindDirection,WindDirectionDegrees,WindSpeedMPH,WindSpeedGustMPH,Humidity,HourlyPrecipIn,Conditions,Clouds,dailyrainin,SoftwareType,DateUTC
2013-03-20 00:00:00,26.0,-3.4,29.66,ENE,67,1.0,10.0,27,0.00,,,0.00,Weather View 32 v70,2013-03-20 04:00:00,
2013-03-20 00:05:00,26.0,-4.2,29.66,ENE,67,1.0,10.0,26,0.00,,,0.00,Weather View 32 v70,2013-03-20 04:05:00,
2013-03-20 00:10:00,26.0,-5.0,29.66,ENE,67,5.0,10.0,25,0.00,,,0.00,Weather View 32 v70,2013-03-20 04:10:00,
2013-03-20 00:15:00,26.0,-1.9,29.68,ENE,67,5.0,10.0,29,0.00,,,0.00,Weather View 32 v70,2013-03-20 04:15:00,
2013-03-20 00:20:00,26.0,-0.5,29.68,ENE,67,3.0,10.0,31,0.00,,,0.00,Weather View 32 v70,2013-03-20 04:20:00,
2013-03-20 00:25:00,25.0,-0.1,29.68,ENE,67,1.0,10.0,33,0.00,,,0.00,Weather View 32 v70,2013-03-20 04:25:00,
2013-03-20 00:30:00,25.0,-0.1,29.68,ENE,67,1.0,10.0,33,0.00,,,0.00,Weather View 32 v70,2013-03-20 04:30:00,
2013-03-20 00:35:00,25.0,-0.1,29.68,ENE,67,1.0,10.0,33,0.00,,,0.00,Weather View 32 v70,2013-03-20 04:35:00,
2013-03-20 00:40:00,25.0,-0.7,29.68,ENE,67,3.0,10.0,32,0.00,,,0.00,Weather View 32 v70,2013-03-20 04:40:00,
2013-03-20 00:45:00,25.0,-2.1,29.68,ENE,67,0.0,10.0,30,0.00,,,0.00,Weather View 32 v70,2013-03-20 04:45:00,
2013-03-20 00:50:00,25.0,-3.5,29.68,ENE,67,1.0,9.0,28,0.00,,,0.00,Weather View 32 v70,2013-03-20 04:50:00,
2013-03-20 00:55:00,25.0,-3.5,29.68,ENE,67,0.0,9.0,28,0.00,,,0.00,Weather View 32 v70,2013-03-20 04:55:00,
2013-03-20 01:00:00,25.0,-3.5,29.68,ENE,67,0.0,9.0,28,0.00,,,0.00,Weather View 32 v70,2013-03-20 05:00:00,
2013-03-20 01:05:00,25.0,-2.8,29.68,ENE,67,0.0,9.0,29,0.00,,,0.00,Weather View 32 v70,2013-03-20 05:05:00,
2013-03-20 01:10:00,25.0,-2.1,29.68,ENE,67,3.0,9.0,30,0.00,,,0.00,Weather View 32 v70,2013-03-20 05:10:00,
2013-03-20 01:15:00,25.0,-2.1,29.68,ENE,67,1.0,8.0,30,0.00,,,0.00,Weather View 32 v70,2013-03-20 05:15:00,
2013-03-20 01:20:00,25.0,-2.1,29.68,ENE,67,4.0,6.0,30,0.00,,,0.00,Weather View 32 v70,2013-03-20 05:20:00,
2013-03-20 01:25:00,25.0,-0.7,29.67,ENE,67,2.0,6.0,32,0.00,,,0.00,Weather View 32 v70,2013-03-20 05:25:00,
2013-03-20 01:30:00,25.0,-0.1,29.67,ENE,67,1.0,6.0,33,0.00,,,0.00,Weather View 32 v70,2013-03-20 05:30:00,
2013-03-20 01:35:00,25.0,0.6,29.67,ENE,67,1.0,6.0,34,0.00,,,0.00,Weather View 32 v70,2013-03-20 05:35:00,
2013-03-20 01:40:00,25.0,1.8,29.68,ENE,67,1.0,6.0,36,0.00,,,0.00,Weather View 32 v70,2013-03-20 05:40:00,
2013-03-20 01:45:00,25.0,1.8,29.68,ENE,67,0.0,6.0,36,0.00,,,0.00,Weather View 32 v70,2013-03-20 05:45:00,
2013-03-20 01:50:00,25.0,2.4,29.68,ENE,67,0.0,6.0,37,0.00,,,0.00,Weather View 32 v70,2013-03-20 05:50:00,
2013-03-20 01:55:00,25.0,2.4,29.68,ENE,67,3.0,6.0,37,0.00,,,0.00,Weather View 32 v70,2013-03-20 05:55:00,
2013-03-20 02:00:00,25.0,2.4,29.68,ENE,67,2.0,7.0,37,0.00,,,0.00,Weather View 32 v70,2013-03-20 06:00:00,
2013-03-20 02:05:00,25.0,2.4,29.69,ENE,67,2.0,7.0,37,0.00,,,0.00,Weather View 32 v70,2013-03-20 06:05:00,
2013-03-20 02:10:00,25.0,4.6,29.69,ENE,67,5.0,7.0,41,0.00,,,0.00,Weather View 32 v70,2013-03-20 06:10:00,
2013-03-20 02:15:00,25.0,6.2,29.68,ENE,67,3.0,7.0,44,0.00,,,0.00,Weather View 32 v70,2013-03-20 06:15:00,
2013-03-20 02:20:00,24.0,5.7,29.68,ENE,67,3.0,7.0,45,0.00,,,0.00,Weather View 32 v70,2013-03-20 06:20:00,
2013-03-20 02:25:00,24.0,5.7,29.68,ENE,67,5.0,7.0,45,0.00,,,0.00,Weather View 32 v70,2013-03-20 06:25:00,
2013-03-20 02:30:00,24.0,5.2,29.67,ENE,67,1.0,7.0,44,0.00,,,0.00,Weather View 32 v70,2013-03-20 06:30:00,
2013-03-20 02:35:00,24.0,4.7,29.67,ENE,67,3.0,7.0,43,0.00,,,0.00,Weather View 32 v70,2013-03-20 06:35:00,
2013-03-20 02:40:00,23.0,4.3,29.67,ENE,67,0.0,7.0,44,0.00,,,0.00,Weather View 32 v70,2013-03-20 06:40:00,
2013-03-20 02:45:00,23.0,4.3,29.67,ENE,67,0.0,7.0,44,0.00,,,0.00,Weather View 32 v70,2013-03-20 06:45:00,
2013-03-20 02:50:00,23.0,5.8,29.67,ENE,67,0.0,7.0,47,0.00,,,0.00,Weather View 32 v70,2013-03-20 06:50:00,
2013-03-20 02:55:00,22.0,4.4,29.67,ENE,67,0.0,7.0,46,0.00,,,0.00,Weather View 32 v70,2013-03-20 06:55:00,
2013-03-20 03:00:00,22.0,6.2,29.68,ENE,67,0.0,7.0,50,0.00,,,0.00,Weather View 32 v70,2013-03-20 07:00:00,
2013-03-20 03:05:00,22.0,4.4,29.67,ENE,67,0.0,7.0,46,0.00,,,0.00,Weather View 32 v70,2013-03-20 07:05:00,
2013-03-20 03:10:00,21.0,1.0,29.67,ENE,67,0.0,6.0,41,0.00,,,0.00,Weather View 32 v70,2013-03-20 07:10:00,
2013-03-20 03:15:00,21.0,1.0,29.67,ENE,67,0.0,5.0,41,0.00,,,0.00,Weather View 32 v70,2013-03-20 07:15:00,
2013-03-20 03:20:00,21.0,2.0,29.67,ENE,67,0.0,5.0,43,0.00,,,0.00,Weather View 32 v70,2013-03-20 07:20:00,
2013-03-20 03:25:00,21.0,2.5,29.68,ENE,67,0.0,5.0,44,0.00,,,0.00,Weather View 32 v70,2013-03-20 07:25:00,
2013-03-20 03:30:00,21.0,2.0,29.68,ENE,67,0.0,5.0,43,0.00,,,0.00,Weather View 32 v70,2013-03-20 07:30:00,
2013-03-20 03:35:00,21.0,0.5,29.68,ENE,67,0.0,3.0,40,0.00,,,0.00,Weather View 32 v70,2013-03-20 07:35:00,
2013-03-20 03:40:00,21.0,-0.1,29.68,ENE,67,0.0,0.0,39,0.00,,,0.00,Weather View 32 v70,2013-03-20 07:40:00,
2013-03-20 03:45:00,21.0,-1.2,29.68,ENE,67,0.0,0.0,37,0.00,,,0.00,Weather View 32 v70,2013-03-20 07:45:00,
2013-03-20 03:50:00,21.0,-4.9,29.67,ENE,67,0.0,0.0,31,0.00,,,0.00,Weather View 32 v70,2013-03-20 07:50:00,
2013-03-20 03:55:00,22.0,-7.7,29.67,ENE,67,0.0,0.0,26,0.00,,,0.00,Weather View 32 v70,2013-03-20 07:55:00,
2013-03-20 04:00:00,22.0,-10.1,29.67,ENE,67,0.0,0.0,23,0.00,,,0.00,Weather View 32 v70,2013-03-20 08:00:00,
2013-03-20 04:05:00,22.0,-14.0,29.67,ENE,67,0.0,0.0,19,0.00,,,0.00,Weather View 32 v70,2013-03-20 08:05:00,
2013-03-20 04:10:00,23.0,-14.2,29.67,ENE,67,0.0,0.0,18,0.00,,,0.00,Weather View 32 v70,2013-03-20 08:10:00,
2013-03-20 04:15:00,23.0,-15.3,29.67,ENE,67,0.0,0.0,17,0.00,,,0.00,Weather View 32 v70,2013-03-20 08:15:00,
2013-03-20 04:20:00,23.0,-15.3,29.67,ENE,67,0.0,0.0,17,0.00,,,0.00,Weather View 32 v70,2013-03-20 08:20:00,
2013-03-20 04:25:00,23.0,-15.3,29.67,ENE,67,0.0,0.0,17,0.00,,,0.00,Weather View 32 v70,2013-03-20 08:25:00,
2013-03-20 04:30:00,24.0,-12.3,29.68,ENE,67,0.0,0.0,19,0.00,,,0.00,Weather View 32 v70,2013-03-20 08:30:00,
2013-03-20 04:35:00,24.0,-12.3,29.68,ENE,67,0.0,1.0,19,0.00,,,0.00,Weather View 32 v70,2013-03-20 08:35:00,
2013-03-20 04:40:00,24.0,-10.3,29.68,ENE,67,0.0,1.0,21,0.00,,,0.00,Weather View 32 v70,2013-03-20 08:40:00,
2013-03-20 04:45:00,24.0,-10.3,29.68,ENE,67,0.0,1.0,21,0.00,,,0.00,Weather View 32 v70,2013-03-20 08:45:00,
2013-03-20 04:50:00,24.0,-10.3,29.68,ENE,67,0.0,1.0,21,0.00,,,0.00,Weather View 32 v70,2013-03-20 08:50:00,
2013-03-20 04:55:00,24.0,-10.3,29.68,ENE,67,0.0,1.0,21,0.00,,,0.00,Weather View 32 v70,2013-03-20 08:55:00,
2013-03-20 05:00:00,24.0,-10.3,29.68,ENE,67,1.0,1.0,21,0.00,,,0.00,Weather View 32 v70,2013-03-20 09:00:00,
2013-03-20 05:05:00,24.0,-10.3,29.68,ENE,67,2.0,2.0,21,0.00,,,0.00,Weather View 32 v70,2013-03-20 09:05:00,
2013-03-20 05:10:00,24.0,-3.0,29.69,ENE,67,0.0,2.0,30,0.00,,,0.00,Weather View 32 v70,2013-03-20 09:10:00,
2013-03-20 05:15:00,24.0,3.7,29.69,ENE,67,1.0,2.0,41,0.00,,,0.00,Weather View 32 v70,2013-03-20 09:15:00,
2013-03-20 05:20:00,25.0,6.6,29.69,ENE,67,0.0,3.0,45,0.00,,,0.00,Weather View 32 v70,2013-03-20 09:20:00,
2013-03-20 05:25:00,25.0,9.0,29.69,ENE,67,0.0,3.0,50,0.00,,,0.00,Weather View 32 v70,2013-03-20 09:25:00,
2013-03-20 05:30:00,25.0,9.4,29.69,ENE,67,1.0,3.0,51,0.00,,,0.00,Weather View 32 v70,2013-03-20 09:30:00,
2013-03-20 05:35:00,25.0,9.4,29.69,ENE,67,0.0,3.0,51,0.00,,,0.00,Weather View 32 v70,2013-03-20 09:35:00,
2013-03-20 05:40:00,25.0,11.5,29.69,ENE,67,0.0,3.0,56,0.00,,,0.00,Weather View 32 v70,2013-03-20 09:40:00,
2013-03-20 05:45:00,25.0,12.3,29.69,ENE,67,0.0,3.0,58,0.00,,,0.00,Weather View 32 v70,2013-03-20 09:45:00,
2013-03-20 05:50:00,24.0,11.0,29.69,ENE,67,1.0,3.0,57,0.00,,,0.00,Weather View 32 v70,2013-03-20 09:50:00,
2013-03-20 05:55:00,24.0,12.5,29.69,ENE,67,2.0,3.0,61,0.00,,,0.00,Weather View 32 v70,2013-03-20 09:55:00,
2013-03-20 06:00:00,24.0,12.9,29.69,ENE,67,1.0,3.0,62,0.00,,,0.00,Weather View 32 v70,2013-03-20 10:00:00,
2013-03-20 06:05:00,24.0,13.2,29.69,ENE,67,0.0,3.0,63,0.00,,,0.00,Weather View 32 v70,2013-03-20 10:05:00,
2013-03-20 06:10:00,24.0,13.6,29.69,ENE,67,0.0,4.0,64,0.00,,,0.00,Weather View 32 v70,2013-03-20 10:10:00,
2013-03-20 06:15:00,24.0,14.3,29.69,ENE,67,2.0,4.0,66,0.00,,,0.00,Weather View 32 v70,2013-03-20 10:15:00,
2013-03-20 06:20:00,24.0,14.3,29.69,ENE,67,1.0,4.0,66,0.00,,,0.00,Weather View 32 v70,2013-03-20 10:20:00,
2013-03-20 06:25:00,24.0,14.3,29.70,ENE,67,0.0,4.0,66,0.00,,,0.00,Weather View 32 v70,2013-03-20 10:25:00,
2013-03-20 06:30:00,24.0,13.6,29.70,ENE,67,2.0,4.0,64,0.00,,,0.00,Weather View 32 v70,2013-03-20 10:30:00,
2013-03-20 06:35:00,23.0,12.6,29.70,ENE,67,0.0,4.0,64,0.00,,,0.00,Weather View 32 v70,2013-03-20 10:35:00,
2013-03-20 06:40:00,23.0,12.3,29.69,ENE,67,1.0,4.0,63,0.00,,,0.00,Weather View 32 v70,2013-03-20 10:40:00,
2013-03-20 06:46:00,23.0,12.6,29.69,ENE,67,1.0,4.0,64,0.00,,,0.00,Weather View 32 v70,2013-03-20 10:46:00,
2013-03-20 06:51:00,23.0,12.6,29.69,ENE,67,0.0,4.0,64,0.00,,,0.00,Weather View 32 v70,2013-03-20 10:51:00,
2013-03-20 06:56:00,23.0,13.0,29.69,ENE,67,1.0,4.0,65,0.00,,,0.00,Weather View 32 v70,2013-03-20 10:56:00,
2013-03-20 07:01:00,23.0,12.6,29.69,ENE,67,1.0,4.0,64,0.00,,,0.00,Weather View 32 v70,2013-03-20 11:01:00,
2013-03-20 07:06:00,23.0,12.6,29.70,ENE,67,0.0,4.0,64,0.00,,,0.00,Weather View 32 v70,2013-03-20 11:06:00,
2013-03-20 07:11:00,23.0,13.3,29.70,ENE,67,0.0,4.0,66,0.00,,,0.00,Weather View 32 v70,2013-03-20 11:11:00,
2013-03-20 07:16:00,23.0,15.0,29.70,ENE,67,1.0,4.0,71,0.00,,,0.00,Weather View 32 v70,2013-03-20 11:16:00,
2013-03-20 07:21:00,23.0,14.3,29.70,ENE,67,2.0,4.0,69,0.00,,,0.00,Weather View 32 v70,2013-03-20 11:21:00,
2013-03-20 07:26:00,23.0,14.3,29.70,ENE,67,0.0,4.0,69,0.00,,,0.00,Weather View 32 v70,2013-03-20 11:26:00,
2013-03-20 07:31:00,23.0,14.3,29.70,ENE,67,0.0,3.0,69,0.00,,,0.00,Weather View 32 v70,2013-03-20 11:31:00,
2013-03-20 07:36:00,24.0,15.3,29.70,ENE,67,0.0,3.0,69,0.00,,,0.00,Weather View 32 v70,2013-03-20 11:36:00,
2013-03-20 07:41:00,24.0,15.3,29.71,ENE,67,0.0,3.0,69,0.00,,,0.00,Weather View 32 v70,2013-03-20 11:41:00,
2013-03-20 07:46:00,24.0,16.0,29.71,ENE,67,2.0,3.0,71,0.00,,,0.00,Weather View 32 v70,2013-03-20 11:46:00,
2013-03-20 07:51:00,25.0,17.6,29.71,ENE,67,1.0,4.0,73,0.00,,,0.00,Weather View 32 v70,2013-03-20 11:51:00,
2013-03-20 07:56:00,25.0,17.9,29.71,ENE,67,0.0,4.0,74,0.00,,,0.00,Weather View 32 v70,2013-03-20 11:56:00,
2013-03-20 08:01:00,25.0,17.6,29.71,ENE,67,1.0,4.0,73,0.00,,,0.00,Weather View 32 v70,2013-03-20 12:01:00,
2013-03-20 08:06:00,26.0,17.6,29.71,ENE,67,0.0,4.0,70,0.00,,,0.00,Weather View 32 v70,2013-03-20 12:06:00,
2013-03-20 08:11:00,26.0,20.1,29.70,ENE,67,1.0,4.0,78,0.00,,,0.00,Weather View 32 v70,2013-03-20 12:11:00,
2013-03-20 08:16:00,26.0,19.8,29.71,ENE,67,0.0,4.0,77,0.00,,,0.00,Weather View 32 v70,2013-03-20 12:16:00,
2013-03-20 08:21:00,27.0,21.9,29.71,ENE,67,1.0,4.0,81,0.00,,,0.00,Weather View 32 v70,2013-03-20 12:21:00,
2013-03-20 08:26:00,27.0,23.4,29.71,ENE,67,4.0,4.0,86,0.00,,,0.00,Weather View 32 v70,2013-03-20 12:26:00,
2013-03-20 08:31:00,27.0,21.9,29.71,ENE,67,0.0,4.0,81,0.00,,,0.00,Weather View 32 v70,2013-03-20 12:31:00,
2013-03-20 08:36:00,27.0,20.8,29.71,NNW,337,0.0,4.0,77,0.00,,,0.00,Weather View 32 v70,2013-03-20 12:36:00,
2013-03-20 08:41:00,28.0,23.5,29.71,West,270,7.0,8.0,83,0.00,,,0.00,Weather View 32 v70,2013-03-20 12:41:00,
2013-03-20 08:46:00,28.0,23.2,29.70,West,270,4.0,9.0,82,0.00,,,0.00,Weather View 32 v70,2013-03-20 12:46:00,
2013-03-20 08:51:00,28.0,24.1,29.71,West,270,3.0,13.0,85,0.01,,,0.01,Weather View 32 v70,2013-03-20 12:51:00,
2013-03-20 08:56:00,28.0,24.1,29.70,West,270,2.0,13.0,85,0.01,,,0.01,Weather View 32 v70,2013-03-20 12:56:00,
2013-03-20 09:01:00,29.0,25.3,29.71,West,270,7.0,13.0,86,0.01,,,0.01,Weather View 32 v70,2013-03-20 13:01:00,
2013-03-20 09:06:00,29.0,25.1,29.71,West,270,0.0,13.0,85,0.01,,,0.01,Weather View 32 v70,2013-03-20 13:06:00,
2013-03-20 09:11:00,29.0,25.9,29.71,WNW,292,0.0,13.0,88,0.01,,,0.01,Weather View 32 v70,2013-03-20 13:11:00,
2013-03-20 09:16:00,30.0,27.7,29.71,WSW,247,4.0,13.0,91,0.01,,,0.01,Weather View 32 v70,2013-03-20 13:16:00,
2013-03-20 09:22:00,30.0,26.6,29.72,NW,315,1.0,13.0,87,0.01,,,0.01,Weather View 32 v70,2013-03-20 13:22:00,
2013-03-20 09:27:00,30.0,26.9,29.72,West,270,2.0,13.0,88,0.01,,,0.01,Weather View 32 v70,2013-03-20 13:27:00,
2013-03-20 09:32:00,30.0,27.7,29.72,West,270,6.0,13.0,91,0.01,,,0.01,Weather View 32 v70,2013-03-20 13:32:00,
2013-03-20 09:37:00,31.0,28.4,29.72,WSW,247,6.0,13.0,90,0.01,,,0.01,Weather View 32 v70,2013-03-20 13:37:00,
2013-03-20 09:42:00,31.0,27.9,29.72,SSW,202,4.0,13.0,88,0.02,,,0.02,Weather View 32 v70,2013-03-20 13:42:00,
2013-03-20 09:47:00,31.0,27.6,29.72,East,90,1.0,13.0,87,0.03,,,0.03,Weather View 32 v70,2013-03-20 13:47:00,
2013-03-20 09:52:00,32.0,28.6,29.72,NE,45,0.0,13.0,87,0.04,,,0.05,Weather View 32 v70,2013-03-20 13:52:00,
2013-03-20 09:57:00,32.0,29.4,29.72,West,270,6.0,11.0,90,0.04,,,0.05,Weather View 32 v70,2013-03-20 13:57:00,
2013-03-20 10:02:00,31.0,27.9,29.72,SE,135,3.0,11.0,88,0.05,,,0.06,Weather View 32 v70,2013-03-20 14:02:00,
2013-03-20 10:07:00,32.0,29.1,29.73,WNW,292,5.0,11.0,89,0.06,,,0.07,Weather View 32 v70,2013-03-20 14:07:00,
2013-03-20 10:12:00,32.0,28.8,29.72,East,90,7.0,11.0,88,0.06,,,0.07,Weather View 32 v70,2013-03-20 14:12:00,
2013-03-20 10:17:00,32.0,28.8,29.72,West,270,5.0,11.0,88,0.06,,,0.07,Weather View 32 v70,2013-03-20 14:17:00,
2013-03-20 10:22:00,33.0,30.1,29.72,WSW,247,3.0,11.0,89,0.08,,,0.09,Weather View 32 v70,2013-03-20 14:22:00,
2013-03-20 10:27:00,33.0,29.6,29.73,WSW,247,6.0,12.0,87,0.08,,,0.09,Weather View 32 v70,2013-03-20 14:27:00,
2013-03-20 10:32:00,33.0,29.8,29.73,West,270,4.0,12.0,88,0.08,,,0.09,Weather View 32 v70,2013-03-20 14:32:00,
2013-03-20 10:37:00,32.0,28.3,29.73,SSE,157,5.0,12.0,86,0.08,,,0.09,Weather View 32 v70,2013-03-20 14:37:00,
2013-03-20 10:42:00,33.0,29.6,29.72,West,270,6.0,12.0,87,0.09,,,0.11,Weather View 32 v70,2013-03-20 14:42:00,
2013-03-20 10:47:00,33.0,29.8,29.72,ENE,67,3.0,12.0,88,0.08,,,0.11,Weather View 32 v70,2013-03-20 14:47:00,
2013-03-20 10:52:00,33.0,29.8,29.72,WSW,247,3.0,12.0,88,0.06,,,0.11,Weather View 32 v70,2013-03-20 14:52:00,
2013-03-20 10:57:00,34.0,30.5,29.73,SW,225,6.0,12.0,87,0.06,,,0.11,Weather View 32 v70,2013-03-20 14:57:00,
2013-03-20 11:02:00,34.0,30.3,29.72,WNW,292,2.0,12.0,86,0.05,,,0.11,Weather View 32 v70,2013-03-20 15:02:00,
2013-03-20 11:07:00,34.0,30.0,29.73,WNW,292,2.0,12.0,85,0.06,,,0.13,Weather View 32 v70,2013-03-20 15:07:00,
2013-03-20 11:12:00,34.0,29.7,29.73,WSW,247,5.0,12.0,84,0.06,,,0.13,Weather View 32 v70,2013-03-20 15:12:00,
2013-03-20 11:17:00,35.0,30.7,29.74,WNW,292,8.0,12.0,84,0.06,,,0.13,Weather View 32 v70,2013-03-20 15:17:00,
2013-03-20 11:22:00,35.0,30.9,29.74,SE,135,2.0,12.0,85,0.04,,,0.13,Weather View 32 v70,2013-03-20 15:22:00,
2013-03-20 11:27:00,35.0,30.7,29.74,WNW,292,10.0,12.0,84,0.06,,,0.15,Weather View 32 v70,2013-03-20 15:27:00,
2013-03-20 11:32:00,34.0,30.0,29.73,WNW,292,2.0,12.0,85,0.06,,,0.15,Weather View 32 v70,2013-03-20 15:32:00,
2013-03-20 11:37:00,34.0,29.4,29.73,WNW,292,4.0,12.0,83,0.06,,,0.15,Weather View 32 v70,2013-03-20 15:37:00,
2013-03-20 11:42:00,34.0,29.7,29.73,South,180,3.0,15.0,84,0.04,,,0.15,Weather View 32 v70,2013-03-20 15:42:00,
2013-03-20 11:47:00,35.0,30.7,29.73,WNW,292,1.0,15.0,84,0.06,,,0.17,Weather View 32 v70,2013-03-20 15:47:00,
2013-03-20 11:52:00,35.0,30.1,29.73,West,270,5.0,15.0,82,0.06,,,0.17,Weather View 32 v70,2013-03-20 15:52:00,
2013-03-20 11:57:00,35.0,30.7,29.73,ESE,112,0.0,15.0,84,0.06,,,0.17,Weather View 32 v70,2013-03-20 15:57:00,
2013-03-20 12:02:00,34.0,29.4,29.74,WSW,247,6.0,15.0,83,0.06,,,0.17,Weather View 32 v70,2013-03-20 16:02:00,
2013-03-20 12:07:00,34.0,29.4,29.74,West,270,5.0,15.0,83,0.06,,,0.19,Weather View 32 v70,2013-03-20 16:07:00,
2013-03-20 12:12:00,34.0,30.0,29.74,West,270,4.0,15.0,85,0.06,,,0.19,Weather View 32 v70,2013-03-20 16:12:00,
2013-03-20 12:17:00,34.0,30.5,29.74,WNW,292,5.0,15.0,87,0.06,,,0.19,Weather View 32 v70,2013-03-20 16:17:00,
2013-03-20 12:23:00,35.0,30.7,29.74,West,270,1.0,15.0,84,0.06,,,0.19,Weather View 32 v70,2013-03-20 16:23:00,
2013-03-20 12:28:00,35.0,30.7,29.74,WSW,247,4.0,15.0,84,0.05,,,0.20,Weather View 32 v70,2013-03-20 16:28:00,
2013-03-20 12:33:00,35.0,30.7,29.74,NNW,337,0.0,15.0,84,0.06,,,0.21,Weather View 32 v70,2013-03-20 16:33:00,
2013-03-20 12:38:00,35.0,30.1,29.74,WSW,247,6.0,15.0,82,0.06,,,0.21,Weather View 32 v70,2013-03-20 16:38:00,
2013-03-20 12:43:00,35.0,29.1,29.74,West,270,7.0,13.0,79,0.06,,,0.21,Weather View 32 v70,2013-03-20 16:43:00,
2013-03-20 12:48:00,35.0,28.2,29.74,WSW,247,2.0,13.0,76,0.05,,,0.22,Weather View 32 v70,2013-03-20 16:48:00,
2013-03-20 12:53:00,37.0,31.4,29.74,SSW,202,5.0,13.0,80,0.05,,,0.22,Weather View 32 v70,2013-03-20 16:53:00,
2013-03-20 12:58:00,37.0,31.1,29.74,WNW,292,4.0,13.0,79,0.05,,,0.22,Weather View 32 v70,2013-03-20 16:58:00,
2013-03-20 13:03:00,35.0,29.1,29.74,WSW,247,1.0,13.0,79,0.06,,,0.23,Weather View 32 v70,2013-03-20 17:03:00,
2013-03-20 13:08:00,35.0,29.8,29.74,SE,135,5.0,13.0,81,0.04,,,0.23,Weather View 32 v70,2013-03-20 17:08:00,
2013-03-20 13:13:00,36.0,29.2,29.74,South,180,1.0,13.0,76,0.05,,,0.24,Weather View 32 v70,2013-03-20 17:13:00,
2013-03-20 13:18:00,38.0,32.1,29.74,SSW,202,1.0,13.0,79,0.05,,,0.24,Weather View 32 v70,2013-03-20 17:18:00,
2013-03-20 13:23:00,37.0,30.1,29.74,WSW,247,0.0,13.0,76,0.06,,,0.25,Weather View 32 v70,2013-03-20 17:23:00,
2013-03-20 13:28:00,37.0,30.8,29.74,NNW,337,3.0,13.0,78,0.05,,,0.25,Weather View 32 v70,2013-03-20 17:28:00,
2013-03-20 13:33:00,35.0,27.5,29.74,West,270,6.0,13.0,74,0.05,,,0.26,Weather View 32 v70,2013-03-20 17:33:00,
2013-03-20 13:38:00,35.0,30.1,29.74,SE,135,0.0,13.0,82,0.05,,,0.26,Weather View 32 v70,2013-03-20 17:38:00,
2013-03-20 13:43:00,36.0,31.3,29.74,South,180,7.0,13.0,83,0.05,,,0.26,Weather View 32 v70,2013-03-20 17:43:00,
2013-03-20 13:48:00,35.0,28.5,29.74,WNW,292,7.0,13.0,77,0.05,,,0.27,Weather View 32 v70,2013-03-20 17:48:00,
2013-03-20 13:53:00,35.0,28.8,29.74,WSW,247,6.0,13.0,78,0.05,,,0.27,Weather View 32 v70,2013-03-20 17:53:00,
2013-03-20 13:58:00,35.0,30.4,29.73,SE,135,3.0,13.0,83,0.05,,,0.27,Weather View 32 v70,2013-03-20 17:58:00,
2013-03-20 14:03:00,36.0,28.5,29.73,SW,225,5.0,13.0,74,0.04,,,0.27,Weather View 32 v70,2013-03-20 18:03:00,
2013-03-20 14:08:00,36.0,29.2,29.74,West,270,2.0,13.0,76,0.05,,,0.28,Weather View 32 v70,2013-03-20 18:08:00,
2013-03-20 14:13:00,36.0,29.5,29.73,SSE,157,1.0,13.0,77,0.04,,,0.28,Weather View 32 v70,2013-03-20 18:13:00,
2013-03-20 14:18:00,36.0,30.1,29.73,SSW,202,3.0,13.0,79,0.04,,,0.28,Weather View 32 v70,2013-03-20 18:18:00,
2013-03-20 14:23:00,36.0,27.8,29.73,WNW,292,7.0,13.0,72,0.04,,,0.29,Weather View 32 v70,2013-03-20 18:23:00,
2013-03-20 14:28:00,36.0,28.2,29.73,WNW,292,2.0,12.0,73,0.04,,,0.29,Weather View 32 v70,2013-03-20 18:28:00,
2013-03-20 14:33:00,36.0,29.2,29.72,WNW,292,3.0,12.0,76,0.03,,,0.29,Weather View 32 v70,2013-03-20 18:33:00,
2013-03-20 14:38:00,37.0,27.1,29.72,NE,45,0.0,12.0,67,0.04,,,0.30,Weather View 32 v70,2013-03-20 18:38:00,
2013-03-20 14:43:00,38.0,25.7,29.73,NW,315,2.0,12.0,61,0.04,,,0.30,Weather View 32 v70,2013-03-20 18:43:00,
2013-03-20 14:48:00,39.0,26.3,29.72,SW,225,3.0,11.0,60,0.03,,,0.30,Weather View 32 v70,2013-03-20 18:48:00,
2013-03-20 14:53:00,38.0,23.7,29.73,NNE,22,3.0,11.0,56,0.04,,,0.31,Weather View 32 v70,2013-03-20 18:53:00,
2013-03-20 14:58:00,38.0,26.9,29.73,SSE,157,0.0,11.0,64,0.04,,,0.31,Weather View 32 v70,2013-03-20 18:58:00,
2013-03-20 15:03:00,39.0,27.8,29.73,SE,135,0.0,11.0,64,0.05,,,0.32,Weather View 32 v70,2013-03-20 19:03:00,
2013-03-20 15:08:00,38.0,22.4,29.73,NE,45,1.0,10.0,53,0.04,,,0.32,Weather View 32 v70,2013-03-20 19:08:00,
2013-03-20 15:13:00,38.0,25.7,29.72,North,360,0.0,10.0,61,0.04,,,0.33,Weather View 32 v70,2013-03-20 19:13:00,
2013-03-20 15:18:00,37.0,20.5,29.73,West,270,1.0,10.0,51,0.05,,,0.33,Weather View 32 v70,2013-03-20 19:18:00,
2013-03-20 15:23:00,37.0,21.9,29.73,West,270,5.0,12.0,54,0.04,,,0.33,Weather View 32 v70,2013-03-20 19:23:00,
2013-03-20 15:28:00,37.0,22.3,29.72,WSW,247,0.0,12.0,55,0.05,,,0.34,Weather View 32 v70,2013-03-20 19:28:00,
2013-03-20 15:33:00,38.0,21.0,29.72,WNW,292,6.0,12.0,50,0.05,,,0.34,Weather View 32 v70,2013-03-20 19:33:00,
2013-03-20 15:38:00,38.0,21.5,29.72,South,180,5.0,12.0,51,0.04,,,0.34,Weather View 32 v70,2013-03-20 19:38:00,
2013-03-20 15:43:00,38.0,21.0,29.72,WNW,292,6.0,12.0,50,0.05,,,0.35,Weather View 32 v70,2013-03-20 19:43:00,
2013-03-20 15:48:00,38.0,21.9,29.72,West,270,1.0,12.0,52,0.05,,,0.35,Weather View 32 v70,2013-03-20 19:48:00,
2013-03-20 15:53:00,38.0,21.9,29.72,WNW,292,7.0,12.0,52,0.04,,,0.35,Weather View 32 v70,2013-03-20 19:53:00,
2013-03-20 15:58:00,38.0,21.5,29.72,ENE,67,5.0,12.0,51,0.05,,,0.36,Weather View 32 v70,2013-03-20 19:58:00,
2013-03-20 16:03:00,38.0,21.5,29.72,WSW,247,1.0,12.0,51,0.04,,,0.36,Weather View 32 v70,2013-03-20 20:03:00,
2013-03-20 16:08:00,38.0,20.5,29.72,East,90,6.0,12.0,49,0.04,,,0.37,Weather View 32 v70,2013-03-20 20:08:00,
2013-03-20 16:13:00,39.0,20.5,29.73,WNW,292,3.0,12.0,47,0.05,,,0.37,Weather View 32 v70,2013-03-20 20:13:00,
2013-03-20 16:18:00,39.0,23.3,29.72,North,360,1.0,12.0,53,0.04,,,0.37,Weather View 32 v70,2013-03-20 20:18:00,
2013-03-20 16:23:00,39.0,21.4,29.73,SSE,157,2.0,12.0,49,0.05,,,0.38,Weather View 32 v70,2013-03-20 20:23:00,
2013-03-20 16:28:00,39.0,21.9,29.73,SSW,202,3.0,12.0,50,0.04,,,0.38,Weather View 32 v70,2013-03-20 20:28:00,
2013-03-20 16:33:00,39.0,21.4,29.73,WSW,247,3.0,12.0,49,0.05,,,0.39,Weather View 32 v70,2013-03-20 20:33:00,
2013-03-20 16:38:00,38.0,20.5,29.73,NW,315,8.0,12.0,49,0.05,,,0.39,Weather View 32 v70,2013-03-20 20:38:00,
2013-03-20 16:43:00,38.0,21.0,29.73,SW,225,2.0,12.0,50,0.04,,,0.40,Weather View 32 v70,2013-03-20 20:43:00,
2013-03-20 16:48:00,38.0,20.5,29.72,NW,315,7.0,12.0,49,0.05,,,0.40,Weather View 32 v70,2013-03-20 20:48:00,
2013-03-20 16:53:00,39.0,22.4,29.73,WSW,247,3.0,12.0,51,0.05,,,0.40,Weather View 32 v70,2013-03-20 20:53:00,
2013-03-20 16:58:00,39.0,21.4,29.73,West,270,3.0,12.0,49,0.04,,,0.40,Weather View 32 v70,2013-03-20 20:58:00,
2013-03-20 17:03:00,38.0,21.0,29.73,SSW,202,0.0,12.0,50,0.05,,,0.41,Weather View 32 v70,2013-03-20 21:03:00,
2013-03-20 17:08:00,38.0,21.9,29.73,West,270,7.0,12.0,52,0.05,,,0.41,Weather View 32 v70,2013-03-20 21:08:00,
2013-03-20 17:13:00,38.0,20.5,29.73,WNW,292,3.0,12.0,49,0.04,,,0.41,Weather View 32 v70,2013-03-20 21:13:00,
2013-03-20 17:18:00,37.0,20.5,29.73,WNW,292,3.0,12.0,51,0.05,,,0.42,Weather View 32 v70,2013-03-20 21:18:00,
2013-03-20 17:23:00,37.0,20.5,29.73,South,180,0.0,11.0,51,0.04,,,0.42,Weather View 32 v70,2013-03-20 21:23:00,
2013-03-20 17:28:00,37.0,19.6,29.73,WNW,292,7.0,11.0,49,0.04,,,0.42,Weather View 32 v70,2013-03-20 21:28:00,
2013-03-20 17:33:00,37.0,21.9,29.73,SSE,157,2.0,11.0,54,0.03,,,0.42,Weather View 32 v70,2013-03-20 21:33:00,
2013-03-20 17:39:00,37.0,19.6,29.73,West,270,7.0,11.0,49,0.03,,,0.42,Weather View 32 v70,2013-03-20 21:39:00,
2013-03-20 17:44:00,37.0,21.9,29.74,WNW,292,3.0,11.0,54,0.03,,,0.42,Weather View 32 v70,2013-03-20 21:44:00,
2013-03-20 17:49:00,36.0,20.1,29.74,WSW,247,2.0,11.0,52,0.02,,,0.43,Weather View 32 v70,2013-03-20 21:49:00,
2013-03-20 17:54:00,36.0,20.1,29.74,West,270,3.0,11.0,52,0.03,,,0.43,Weather View 32 v70,2013-03-20 21:54:00,
2013-03-20 17:59:00,36.0,21.0,29.74,WSW,247,2.0,11.0,54,0.03,,,0.43,Weather View 32 v70,2013-03-20 21:59:00,
2013-03-20 18:04:00,36.0,22.2,29.74,SW,225,0.0,11.0,57,0.02,,,0.43,Weather View 32 v70,2013-03-20 22:04:00,
2013-03-20 18:09:00,35.0,21.7,29.74,South,180,0.0,11.0,58,0.02,,,0.43,Weather View 32 v70,2013-03-20 22:09:00,
2013-03-20 18:14:00,35.0,22.1,29.74,SSW,202,4.0,11.0,59,0.02,,,0.43,Weather View 32 v70,2013-03-20 22:14:00,
2013-03-20 18:19:00,35.0,22.5,29.74,West,270,2.0,11.0,60,0.01,,,0.43,Weather View 32 v70,2013-03-20 22:19:00,
2013-03-20 18:24:00,35.0,21.7,29.74,WSW,247,3.0,11.0,58,0.01,,,0.43,Weather View 32 v70,2013-03-20 22:24:00,
2013-03-20 18:29:00,35.0,22.5,29.75,West,270,3.0,11.0,60,0.01,,,0.43,Weather View 32 v70,2013-03-20 22:29:00,
2013-03-20 18:34:00,35.0,22.1,29.75,West,270,2.0,11.0,59,0.01,,,0.43,Weather View 32 v70,2013-03-20 22:34:00,
2013-03-20 18:39:00,34.0,22.0,29.75,SSW,202,2.0,10.0,61,0.01,,,0.43,Weather View 32 v70,2013-03-20 22:39:00,
2013-03-20 18:44:00,34.0,21.6,29.75,West,270,0.0,10.0,60,0.01,,,0.43,Weather View 32 v70,2013-03-20 22:44:00,
2013-03-20 18:49:00,34.0,21.2,29.75,West,270,2.0,7.0,59,0.00,,,0.43,Weather View 32 v70,2013-03-20 22:49:00,
2013-03-20 18:54:00,34.0,21.2,29.75,WNW,292,4.0,7.0,59,0.01,,,0.44,Weather View 32 v70,2013-03-20 22:54:00,
2013-03-20 18:59:00,34.0,22.0,29.75,West,270,3.0,7.0,61,0.01,,,0.44,Weather View 32 v70,2013-03-20 22:59:00,
2013-03-20 19:04:00,34.0,21.6,29.75,WNW,292,0.0,7.0,60,0.01,,,0.44,Weather View 32 v70,2013-03-20 23:04:00,
2013-03-20 19:09:00,33.0,21.0,29.75,SSW,202,0.0,7.0,61,0.01,,,0.44,Weather View 32 v70,2013-03-20 23:09:00,
2013-03-20 19:14:00,33.0,21.4,29.75,WNW,292,0.0,6.0,62,0.01,,,0.44,Weather View 32 v70,2013-03-20 23:14:00,
2013-03-20 19:19:00,33.0,21.4,29.75,West,270,2.0,6.0,62,0.01,,,0.44,Weather View 32 v70,2013-03-20 23:19:00,
2013-03-20 19:24:00,33.0,22.1,29.75,West,270,1.0,6.0,64,0.01,,,0.44,Weather View 32 v70,2013-03-20 23:24:00,
2013-03-20 19:29:00,32.0,21.6,29.76,West,270,1.0,6.0,65,0.01,,,0.44,Weather View 32 v70,2013-03-20 23:29:00,
2013-03-20 19:34:00,32.0,22.3,29.75,West,270,0.0,6.0,67,0.01,,,0.44,Weather View 32 v70,2013-03-20 23:34:00,
2013-03-20 19:39:00,31.0,22.0,29.75,West,270,0.0,6.0,69,0.01,,,0.44,Weather View 32 v70,2013-03-20 23:39:00,
2013-03-20 19:44:00,30.0,23.7,29.75,SW,225,0.0,6.0,77,0.01,,,0.44,Weather View 32 v70,2013-03-20 23:44:00,
2013-03-20 19:49:00,30.0,25.2,29.75,SW,225,0.0,6.0,82,0.01,,,0.44,Weather View 32 v70,2013-03-20 23:49:00,
2013-03-20 19:54:00,29.0,23.9,29.75,SW,225,0.0,6.0,81,0.00,,,0.44,Weather View 32 v70,2013-03-20 23:54:00,
2013-03-20 19:59:00,29.0,25.6,29.75,SW,225,0.0,6.0,87,0.00,,,0.44,Weather View 32 v70,2013-03-20 23:59:00,
2013-03-20 20:04:00,28.0,26.0,29.75,SW,225,0.0,4.0,92,0.00,,,0.44,Weather View 32 v70,2013-03-21 00:04:00,
2013-03-20 20:09:00,28.0,26.8,29.75,SW,225,0.0,4.0,95,0.00,,,0.44,Weather View 32 v70,2013-03-21 00:09:00,
2013-03-20 20:14:00,27.0,25.2,29.75,SW,225,0.0,4.0,93,0.00,,,0.44,Weather View 32 v70,2013-03-21 00:14:00,
2013-03-20 20:19:00,27.0,25.0,29.75,SW,225,0.0,2.0,92,0.00,,,0.44,Weather View 32 v70,2013-03-21 00:19:00,
2013-03-20 20:24:00,27.0,25.0,29.75,SW,225,0.0,2.0,92,0.00,,,0.44,Weather View 32 v70,2013-03-21 00:24:00,
2013-03-20 20:29:00,26.0,22.9,29.75,SW,225,0.0,2.0,88,0.00,,,0.44,Weather View 32 v70,2013-03-21 00:29:00,
2013-03-20 20:34:00,26.0,22.9,29.75,SW,225,0.0,1.0,88,0.00,,,0.44,Weather View 32 v70,2013-03-21 00:34:00,
2013-03-20 20:39:00,26.0,23.5,29.75,SW,225,0.0,1.0,90,0.00,,,0.44,Weather View 32 v70,2013-03-21 00:39:00,
2013-03-20 20:44:00,25.0,22.7,29.76,SW,225,0.0,0.0,91,0.00,,,0.44,Weather View 32 v70,2013-03-21 00:44:00,
2013-03-20 20:49:00,25.0,22.2,29.75,SW,225,0.0,0.0,89,0.00,,,0.44,Weather View 32 v70,2013-03-21 00:49:00,
2013-03-20 20:54:00,25.0,22.2,29.76,SW,225,0.0,0.0,89,0.00,,,0.44,Weather View 32 v70,2013-03-21 00:54:00,
2013-03-20 20:59:00,24.0,21.0,29.76,SW,225,0.0,0.0,88,0.00,,,0.44,Weather View 32 v70,2013-03-21 00:59:00,
2013-03-20 21:04:00,24.0,20.7,29.75,SW,225,0.0,0.0,87,0.00,,,0.44,Weather View 32 v70,2013-03-21 01:04:00,
2013-03-20 21:09:00,24.0,21.0,29.75,SW,225,0.0,0.0,88,0.00,,,0.44,Weather View 32 v70,2013-03-21 01:09:00,
2013-03-20 21:14:00,24.0,21.0,29.75,SW,225,0.0,0.0,88,0.00,,,0.44,Weather View 32 v70,2013-03-21 01:14:00,
2013-03-20 21:19:00,23.0,20.0,29.75,SW,225,0.0,0.0,88,0.00,,,0.44,Weather View 32 v70,2013-03-21 01:19:00,
2013-03-20 21:24:00,23.0,19.7,29.76,SW,225,0.0,0.0,87,0.00,,,0.44,Weather View 32 v70,2013-03-21 01:24:00,
2013-03-20 21:29:00,23.0,19.4,29.76,SW,225,0.0,0.0,86,0.00,,,0.44,Weather View 32 v70,2013-03-21 01:29:00,
2013-03-20 21:34:00,23.0,19.7,29.76,SW,225,0.0,0.0,87,0.00,,,0.44,Weather View 32 v70,2013-03-21 01:34:00,
2013-03-20 21:39:00,23.0,19.7,29.76,SW,225,0.0,0.0,87,0.00,,,0.44,Weather View 32 v70,2013-03-21 01:39:00,
2013-03-20 21:44:00,22.0,18.2,29.76,SW,225,0.0,0.0,85,0.00,,,0.44,Weather View 32 v70,2013-03-21 01:44:00,
2013-03-20 21:49:00,22.0,17.9,29.76,SW,225,0.0,0.0,84,0.00,,,0.44,Weather View 32 v70,2013-03-21 01:49:00,
2013-03-20 21:55:00,22.0,18.2,29.76,SW,225,0.0,0.0,85,0.00,,,0.44,Weather View 32 v70,2013-03-21 01:55:00,
2013-03-20 22:00:00,22.0,18.5,29.76,SW,225,0.0,0.0,86,0.00,,,0.44,Weather View 32 v70,2013-03-21 02:00:00,
2013-03-20 22:05:00,22.0,18.5,29.76,SW,225,0.0,0.0,86,0.00,,,0.44,Weather View 32 v70,2013-03-21 02:05:00,
2013-03-20 22:10:00,21.0,17.2,29.76,SW,225,0.0,0.0,85,0.00,,,0.44,Weather View 32 v70,2013-03-21 02:10:00,
2013-03-20 22:15:00,21.0,17.2,29.76,SW,225,0.0,0.0,85,0.00,,,0.44,Weather View 32 v70,2013-03-21 02:15:00,
2013-03-20 22:20:00,21.0,17.2,29.77,SW,225,0.0,0.0,85,0.00,,,0.44,Weather View 32 v70,2013-03-21 02:20:00,
2013-03-20 22:25:00,21.0,17.2,29.77,SW,225,0.0,0.0,85,0.00,,,0.44,Weather View 32 v70,2013-03-21 02:25:00,
2013-03-20 22:30:00,21.0,16.4,29.78,SW,225,0.0,0.0,82,0.00,,,0.44,Weather View 32 v70,2013-03-21 02:30:00,
2013-03-20 22:35:00,21.0,15.5,29.78,SW,225,0.0,0.0,79,0.00,,,0.44,Weather View 32 v70,2013-03-21 02:35:00,
2013-03-20 22:40:00,21.0,14.6,29.77,SW,225,0.0,0.0,76,0.00,,,0.44,Weather View 32 v70,2013-03-21 02:40:00,
2013-03-20 22:45:00,21.0,12.4,29.77,SW,225,0.0,0.0,69,0.00,,,0.44,Weather View 32 v70,2013-03-21 02:45:00,
2013-03-20 22:50:00,22.0,9.9,29.77,SW,225,0.0,0.0,59,0.00,,,0.44,Weather View 32 v70,2013-03-21 02:50:00,
2013-03-20 22:55:00,22.0,10.2,29.77,SW,225,0.0,0.0,60,0.00,,,0.44,Weather View 32 v70,2013-03-21 02:55:00,
2013-03-20 23:00:00,22.0,11.0,29.77,SW,225,0.0,0.0,62,0.00,,,0.44,Weather View 32 v70,2013-03-21 03:00:00,
2013-03-20 23:05:00,22.0,12.0,29.76,SW,225,0.0,0.0,65,0.00,,,0.44,Weather View 32 v70,2013-03-21 03:05:00,
2013-03-20 23:10:00,21.0,12.1,29.77,SW,225,0.0,0.0,68,0.00,,,0.44,Weather View 32 v70,2013-03-21 03:10:00,
2013-03-20 23:15:00,21.0,12.4,29.77,SW,225,0.0,0.0,69,0.00,,,0.44,Weather View 32 v70,2013-03-21 03:15:00,
2013-03-20 23:20:00,21.0,13.1,29.77,SW,225,0.0,0.0,71,0.00,,,0.44,Weather View 32 v70,2013-03-21 03:20:00,
2013-03-20 23:25:00,21.0,13.4,29.77,SW,225,0.0,0.0,72,0.00,,,0.44,Weather View 32 v70,2013-03-21 03:25:00,
2013-03-20 23:30:00,21.0,13.4,29.77,SW,225,0.0,0.0,72,0.00,,,0.44,Weather View 32 v70,2013-03-21 03:30:00,
2013-03-20 23:35:00,20.0,12.4,29.78,SW,225,0.0,0.0,72,0.00,,,0.44,Weather View 32 v70,2013-03-21 03:35:00,
2013-03-20 23:40:00,21.0,12.8,29.78,SW,225,0.0,0.0,70,0.00,,,0.44,Weather View 32 v70,2013-03-21 03:40:00,
2013-03-20 23:45:00,20.0,11.8,29.77,SW,225,0.0,0.0,70,0.00,,,0.44,Weather View 32 v70,2013-03-21 03:45:00,
2013-03-20 23:50:00,21.0,12.4,29.77,SW,225,0.0,0.0,69,0.00,,,0.44,Weather View 32 v70,2013-03-21 03:50:00,
2013-03-20 23:55:00,21.0,12.1,29.77,SW,225,0.0,0.0,68,0.00,,,0.44,Weather View 32 v70,2013-03-21 03:55:00,